FW0824 Weather Reports


Display with metric or nautical units.
time (UTC)temp
F
wind
direction
speed
MPH
gust
MPH
rain 1hr
in
rain 24hr
in
rain mn
in
humidity
%
barometer
mb
20220817012638 76 138 0.0 0.0 0.00 0.00 0.00 60 1021.6
20220817011638 76 138 0.0 0.0 0.00 0.00 0.00 59 1021.6
20220817011137 76 138 0.0 5.0 0.00 0.00 0.00 59 1021.6
20220817010135 76 169 0.0 5.0 0.00 0.00 0.00 58 1021.6
20220817005134 76 138 0.0 5.0 0.00 0.00 0.00 58 1021.6
20220817004636 77 137 0.0 5.0 0.00 0.00 0.00 57 1021.6
20220817004134 77 133 0.0 5.0 0.00 0.00 0.00 58 1021.6
20220817003635 77 132 0.0 5.0 0.00 0.00 0.00 58 1021.6
20220817003134 77 136 0.0 0.0 0.00 0.00 0.00 58 1021.6
20220817002634 77 136 0.0 0.0 0.00 0.00 0.00 57 1021.5
20220817001630 77 133 1.0 5.0 0.00 0.00 0.00 56 1021.6
20220817001130 78 125 0.0 4.0 0.00 0.00 0.00 57 1021.5
20220817000629 78 134 0.0 0.0 0.00 0.00 0.00 57 1021.6
20220817000129 78 134 0.0 0.0 0.00 0.00 0.00 56 1021.5
20220816235629 78 133 0.0 0.0 0.00 0.00 0.00 57 1021.3
20220816233628 78 74 0.0 0.0 0.00 0.00 0.00 56 1021.3
20220816233129 78 143 0.0 0.0 0.00 0.00 0.00 55 1021.3
20220816232629 78 129 0.0 0.0 0.00 0.00 0.00 54 1021.2
20220816231629 78 132 0.0 0.0 0.00 0.00 0.00 54 1021.3
20220816230629 78 135 0.0 7.0 0.00 0.00 0.00 54 1021.3
20220816225630 79 138 0.0 1.0 0.00 0.00 0.00 56 1021.3
20220816224130 79 154 0.0 7.0 0.00 0.00 0.00 56 1021.2
20220816223630 79 139 1.0 7.0 0.00 0.00 0.00 56 1021.3
20220816221130 81 198 0.0 0.0 0.00 0.00 0.00 55 1021.2
20220816214629 81 146 0.0 0.0 0.00 0.00 0.00 56 1021.3
20220816214129 81 115 0.0 2.0 0.00 0.00 0.00 56 1021.4
20220816213628 81 135 1.0 9.0 0.00 0.00 0.00 56 1021.4
20220816213129 81 134 1.0 9.0 0.00 0.00 0.00 56 1021.5
20220816212628 81 136 0.0 0.0 0.00 0.00 0.00 57 1021.4
20220816212130 80 171 0.0 0.0 0.00 0.00 0.00 56 1021.3
20220816211629 80 140 0.0 0.0 0.00 0.00 0.00 58 1021.3
20220816211129 80 130 0.0 0.0 0.00 0.00 0.00 57 1021.3
20220816210629 80 139 1.0 7.0 0.00 0.00 0.00 59 1021.5
20220816203631 79 279 0.0 0.0 0.00 0.00 0.00 59 1021.6
20220816203129 79 137 0.0 0.0 0.00 0.00 0.00 60 1021.5
20220816201629 79 123 0.0 0.0 0.00 0.00 0.00 62 1021.6
20220816195129 78 213 0.0 2.0 0.00 0.00 0.00 63 1021.8
20220816193630 78 219 0.0 0.0 0.00 0.00 0.00 64 1021.8
20220816192631 78 135 0.0 0.0 0.00 0.00 0.00 63 1021.9
20220816192128 78 135 0.0 1.0 0.00 0.00 0.00 64 1021.9
20220816191630 78 165 0.0 1.0 0.00 0.00 0.00 63 1021.9
20220816190629 78 123 0.0 0.0 0.00 0.00 0.00 63 1022.1
20220816185130 79 141 0.0 3.0 0.00 0.00 0.00 61 1022.1
20220816184129 80 130 1.0 9.0 0.00 0.00 0.00 62 1022.3
20220816183628 80 146 1.0 9.0 0.00 0.00 0.00 62 1022.3
20220816175602 78 205 0.0 0.0 0.00 0.00 0.00 66 1022.4
20220816175104 78 205 0.0 5.0 0.00 0.00 0.00 65 1022.4
20220816174602 78 190 0.0 5.0 0.00 0.00 0.00 64 1022.5
20220816173603 78 147 0.0 0.0 0.00 0.00 0.00 65 1022.5
20220816172603 77 165 0.0 0.0 0.00 0.00 0.00 66 1022.5
20220816172103 77 225 0.0 4.0 0.00 0.00 0.00 66 1022.6
20220816171101 77 169 1.0 6.0 0.00 0.00 0.00 65 1022.6
20220816170602 77 163 1.0 7.0 0.00 0.00 0.00 65 1022.6
20220816165601 77 254 1.0 9.0 0.00 0.00 0.00 65 1022.5
20220816165101 76 196 1.0 9.0 0.00 0.00 0.00 65 1022.5
20220816164602 76 239 0.0 8.0 0.00 0.00 0.00 65 1022.6
20220816163102 77 221 1.0 7.0 0.00 0.00 0.00 64 1022.6
20220816162601 77 152 0.0 4.0 0.00 0.00 0.00 67 1022.6
20220816162102 76 156 1.0 8.0 0.00 0.00 0.00 67 1022.6
20220816161102 75 150 1.0 6.0 0.00 0.00 0.00 71 1022.6
20220816160601 75 173 1.0 6.0 0.00 0.00 0.00 70 1022.7
20220816160102 74 202 0.0 1.0 0.00 0.00 0.00 70 1022.8
20220816155600 75 189 0.0 3.0 0.00 0.00 0.00 70 1022.8
20220816155103 75 217 1.0 5.0 0.00 0.00 0.00 71 1022.9
20220816154601 75 234 1.0 7.0 0.00 0.00 0.00 71 1022.9
20220816153602 75 134 0.0 7.0 0.00 0.00 0.00 73 1022.8
20220816153101 74 157 0.0 7.0 0.00 0.00 0.00 73 1022.9
20220816152602 74 198 0.0 5.0 0.00 0.00 0.00 75 1022.9
20220816152101 74 169 0.0 5.0 0.00 0.00 0.00 76 1022.9
20220816151601 74 142 0.0 2.0 0.00 0.00 0.00 76 1022.9
20220816151101 74 142 0.0 7.0 0.00 0.00 0.00 75 1022.9
20220816150601 74 117 1.0 9.0 0.00 0.00 0.00 76 1022.9
20220816145600 74 146 1.0 6.0 0.00 0.00 0.00 76 1022.9
20220816145101 73 147 1.0 7.0 0.00 0.00 0.00 78 1022.8
20220816144600 73 204 1.0 7.0 0.00 0.00 0.00 77 1022.9
20220816144100 73 161 1.0 8.0 0.00 0.00 0.00 78 1022.8
20220816143601 72 179 1.0 8.0 0.00 0.00 0.00 78 1022.8
20220816142601 71 134 0.0 0.0 0.00 0.00 0.00 82 1022.7
20220816141600 71 144 0.0 7.0 0.00 0.00 0.00 84 1022.8
20220816140101 70 141 0.0 0.0 0.00 0.00 0.00 85 1022.9
20220816135102 69 142 0.0 0.0 0.00 0.00 0.00 87 1022.9
20220816134101 69 142 0.0 0.0 0.00 0.00 0.00 88 1023.0
20220816133602 69 138 0.0 0.0 0.00 0.00 0.00 89 1022.9
20220816133101 68 138 0.0 0.0 0.00 0.00 0.00 89 1022.8
20220816132100 67 114 0.0 0.0 0.00 0.00 0.00 91 1022.8
20220816131601 67 114 0.0 0.0 0.00 0.00 0.00 91 1022.9
20220816125600 66 113 0.0 0.0 0.00 0.00 0.00 93 1022.8
20220816125102 66 113 0.0 0.0 0.00 0.00 0.00 93 1022.7
20220816124601 66 113 0.0 0.0 0.00 0.00 0.00 93 1022.6
20220816124102 65 113 0.0 2.0 0.00 0.00 0.00 93 1022.6
20220816123601 65 113 0.0 2.0 0.00 0.00 0.00 93 1022.4
20220816123100 65 142 0.0 0.0 0.00 0.00 0.00 93 1022.4
20220816121601 65 139 0.0 0.0 0.00 0.00 0.00 92 1022.1
20220816121101 65 139 0.0 0.0 0.00 0.00 0.00 92 1022.0
20220816120103 65 138 0.0 0.0 0.00 0.00 0.00 92 1021.9
20220816115602 65 138 0.0 0.0 0.00 0.00 0.00 92 1021.9
20220816115102 65 138 0.0 0.0 0.00 0.00 0.00 92 1021.8
20220816114601 65 138 0.0 0.0 0.00 0.00 0.00 92 1022.0
20220816114100 65 138 0.0 0.0 0.00 0.00 0.00 92 1022.0
20220816111601 65 138 0.0 0.0 0.00 0.00 0.00 92 1021.9
20220816111102 65 138 0.0 1.0 0.00 0.00 0.00 92 1021.9
20220816110603 65 138 0.0 1.0 0.00 0.00 0.00 92 1021.8
20220816110102 65 138 0.0 0.0 0.00 0.00 0.00 92 1021.8
20220816104602 65 138 0.0 1.0 0.00 0.00 0.00 92 1021.8
20220816103101 65 138 0.0 0.0 0.00 0.00 0.00 92 1021.9
20220816102601 65 138 0.0 0.0 0.00 0.00 0.00 92 1021.9
20220816102101 65 138 0.0 0.0 0.00 0.00 0.00 92 1021.8
20220816101601 65 138 0.0 0.0 0.00 0.00 0.00 92 1021.8
20220816100101 65 138 0.0 0.0 0.00 0.00 0.00 92 1022.0
20220816095602 65 138 0.0 0.0 0.00 0.00 0.00 92 1021.9
20220816094601 65 138 0.0 0.0 0.00 0.00 0.00 92 1022.0
20220816094101 65 138 0.0 0.0 0.00 0.00 0.00 92 1022.0
20220816093602 65 138 0.0 0.0 0.00 0.00 0.00 92 1022.0
20220816091051 65 138 0.0 0.0 0.00 0.00 0.00 91 1021.7
20220816090042 64 138 0.0 0.0 0.00 0.00 0.00 91 1021.6
20220816085543 64 138 0.0 0.0 0.00 0.00 0.00 91 1021.5
20220816084541 64 138 0.0 0.0 0.00 0.00 0.00 91 1021.5
20220816083539 64 138 0.0 0.0 0.00 0.00 0.00 91 1021.5
20220816083039 64 138 0.0 0.0 0.00 0.00 0.00 91 1021.4
20220816082538 64 138 0.0 0.0 0.00 0.00 0.00 91 1021.6
20220816082038 64 138 0.0 0.0 0.00 0.00 0.00 91 1021.7
20220816081539 64 138 0.0 0.0 0.00 0.00 0.00 91 1021.7
20220816080035 64 138 0.0 0.0 0.00 0.00 0.00 91 1021.6
20220816075033 64 138 0.0 0.0 0.00 0.00 0.00 90 1021.5
20220816074029 64 138 0.0 0.0 0.00 0.00 0.00 90 1021.5
20220816073031 65 138 0.0 0.0 0.00 0.00 0.00 90 1021.6
20220816072029 65 138 0.0 0.0 0.00 0.00 0.00 90 1021.6
20220816071030 65 138 0.0 0.0 0.00 0.00 0.00 89 1021.6
20220816070529 65 138 0.0 0.0 0.00 0.00 0.00 89 1021.6
20220816070029 65 138 0.0 0.0 0.00 0.00 0.00 89 1021.6
20220816064029 65 138 0.0 0.0 0.00 0.00 0.00 89 1021.6
20220816063031 65 138 0.0 0.0 0.00 0.00 0.00 88 1021.6
20220816062530 65 138 0.0 0.0 0.00 0.00 0.00 88 1021.6
20220816062029 65 138 0.0 0.0 0.00 0.00 0.00 87 1021.7
20220816061031 65 138 0.0 0.0 0.00 0.00 0.00 87 1021.7
20220816060027 65 138 0.0 0.0 0.00 0.00 0.00 87 1021.6
20220816055521 65 138 0.0 0.0 0.00 0.00 0.00 87 1021.6
20220816055015 65 138 0.0 0.0 0.00 0.00 0.00 86 1021.5
20220816054009 65 138 0.0 0.0 0.00 0.00 0.00 86 1021.5
20220816053508 65 138 0.0 0.0 0.00 0.00 0.00 85 1021.5
20220816051504 66 138 0.0 0.0 0.00 0.00 0.00 84 1021.4
20220816050003 66 138 0.0 0.0 0.00 0.00 0.00 83 1021.2
20220816045502 67 138 0.0 0.0 0.00 0.00 0.00 83 1021.3
20220816044502 67 138 0.0 0.0 0.00 0.00 0.00 83 1021.2
20220816044001 67 138 0.0 0.0 0.00 0.00 0.00 83 1021.2
20220816043002 67 138 0.0 0.0 0.00 0.00 0.00 83 1021.1
20220816042002 68 138 0.0 0.0 0.00 0.00 0.00 83 1021.0
20220816041502 68 138 0.0 0.0 0.00 0.00 0.00 83 1021.1
20220816040502 68 138 0.0 0.0 0.00 0.00 0.00 83 1020.9
20220816040001 68 138 0.0 0.0 0.00 0.00 0.00 83 1020.9
20220816035002 68 138 0.0 0.0 0.00 0.00 0.00 82 1020.9
20220816034502 68 136 0.0 0.0 0.00 0.00 0.00 82 1021.0
20220816034001 68 136 0.0 0.0 0.00 0.00 0.00 82 1021.0
20220816033002 69 136 0.0 1.0 0.00 0.00 0.00 81 1021.0
20220816031500 69 136 0.0 0.0 0.00 0.00 0.00 81 1020.9
20220816031002 69 136 0.0 0.0 0.00 0.00 0.00 81 1020.9
20220816030501 69 136 0.0 0.0 0.00 0.00 0.00 80 1020.9
20220816030003 69 136 0.0 0.0 0.00 0.00 0.00 80 1020.9
20220816025001 70 136 0.0 0.0 0.00 0.00 0.00 79 1020.7
20220816024502 70 136 0.0 0.0 0.00 0.00 0.00 79 1020.6
20220816023002 71 136 0.0 0.0 0.00 0.00 0.00 77 1020.5
20220816022502 71 136 0.0 0.0 0.00 0.00 0.00 77 1020.6
20220816021501 71 136 0.0 0.0 0.00 0.00 0.00 75 1020.6
20220816015500 72 136 0.0 0.0 0.00 0.00 0.00 74 1020.6